Theta_e
330 330 330 330 332 333 332 333 334 334 334 334 333 333 332 332 331 330 328 326 327 329 330 329 329 329 329 329 328 328 328 327 327 326 326 324 321 322 323 323 323 322 321 321 320 320 320 320 319 319 319 319 320 319 320 321 320 321 321 323 324 323 324 323 322 327 329 329 330 330 330 331 331 331 331 331 332 332 331 329 329 329 329 330 331
331 330 330 330 332 333 332 333 334 334 335 334 333 331 331 330 329 328 327 327 326 325 327 327 327 328 327 328 329 328 328 327 327 327 327 324 322 322 323 323 323 322 321 321 321 319 320 320 319 319 319 319 320 319 320 321 320 320 321 322 324 324 324 322 321 326 329 329 329 330 330 330 330 330 331 331 332 332 330 329 329 329 328 329 331
331 332 331 331 332 333 333 333 334 335 335 335 334 331 330 328 326 325 325 326 326 324 325 326 325 326 324 325 328 328 328 328 328 328 328 326 323 324 324 323 323 322 321 322 322 320 319 320 320 319 318 319 320 320 319 320 320 320 321 322 323 323 324 323 321 322 326 328 329 330 330 330 330 330 330 331 331 331 330 328 328 327 327 328 330
332 332 332 332 332 332 334 335 335 335 335 335 335 333 330 327 324 325 323 324 325 323 322 323 323 323 323 325 327 328 328 328 329 329 328 326 325 325 324 323 323 323 322 322 322 321 319 319 320 319 318 319 320 319 319 320 320 320 320 321 322 323 323 324 323 321 323 326 328 329 329 329 330 329 329 329 329 330 330 328 327 325 324 326 329
332 332 332 332 332 332 333 335 335 335 335 335 335 334 332 330 327 326 324 324 325 324 322 322 322 322 325 328 327 327 328 328 329 328 328 327 326 326 325 322 322 323 323 322 321 321 319 319 320 320 319 319 319 319 319 320 319 319 320 320 320 322 322 322 323 322 323 324 325 327 328 329 329 328 328 328 328 329 329 327 327 325 322 323 327
333 332 332 332 332 331 331 334 336 335 335 334 334 335 334 333 330 326 325 325 325 327 325 322 322 323 325 327 327 328 328 328 328 328 329 329 327 328 327 324 321 323 324 323 322 321 320 320 320 320 320 319 319 319 319 319 319 319 320 319 319 321 322 321 322 323 322 323 324 324 325 326 326 325 325 326 327 328 328 327 327 326 324 324 325
332 332 332 332 332 333 332 333 335 334 335 335 334 335 334 334 332 328 326 326 325 328 326 323 323 324 326 328 328 329 329 329 328 328 328 329 328 327 327 324 322 323 324 323 323 321 320 321 321 319 320 319 319 319 318 319 319 318 319 319 318 319 320 321 321 321 321 321 322 323 323 324 324 323 321 322 325 326 327 328 327 325 323 323 324
332 332 332 333 333 334 333 332 333 334 334 334 334 335 334 334 334 330 328 328 327 326 325 325 325 325 326 328 329 329 329 329 328 328 328 329 329 328 327 326 323 323 324 324 324 323 321 322 321 320 319 318 319 319 318 318 318 318 318 318 318 317 318 320 320 320 320 320 321 321 322 323 323 323 321 321 322 323 324 327 326 323 322 323 324
333 333 333 334 333 334 333 331 332 333 334 334 334 334 333 334 334 332 329 329 328 326 325 326 326 326 327 329 330 330 330 330 329 329 329 328 329 329 327 327 325 324 324 324 325 324 323 322 321 321 320 319 319 320 319 319 318 318 318 318 318 318 318 319 319 319 319 319 320 321 321 322 322 322 321 321 322 322 322 323 322 322 323 321 322
332 333 333 334 334 333 333 331 331 333 333 333 334 333 331 332 333 333 332 331 331 329 328 327 327 328 330 331 331 331 331 331 330 330 329 328 329 329 328 327 327 326 326 325 325 325 324 323 322 321 321 320 320 319 319 319 319 318 318 318 318 318 318 318 318 319 319 319 319 319 320 320 320 320 319 319 320 321 321 321 321 322 321 319 321
330 332 333 335 334 334 333 332 332 333 334 333 333 334 333 331 331 333 334 334 333 332 330 329 328 329 330 331 331 332 332 331 331 330 330 330 329 329 328 327 328 328 327 326 327 326 325 324 323 322 321 320 320 319 319 319 319 319 319 319 319 318 319 319 318 319 319 318 319 319 319 319 319 319 319 319 320 320 319 320 321 320 319 321 322
330 331 334 335 335 335 335 334 333 334 335 334 333 333 333 333 332 332 334 334 334 333 331 329 329 331 331 332 332 332 332 332 332 331 331 330 330 330 329 328 328 328 327 327 327 327 326 325 324 324 323 321 320 320 319 318 319 319 319 319 319 319 319 320 319 318 319 318 319 319 319 319 319 318 319 319 320 319 319 320 321 319 319 320 321
330 332 336 336 336 337 336 335 334 334 335 335 334 333 333 333 333 333 333 333 333 334 332 328 328 330 331 331 331 329 330 331 331 331 331 331 329 330 330 329 329 329 328 327 327 327 325 325 326 325 324 323 321 320 320 319 318 319 319 319 319 319 318 319 319 319 319 318 319 319 319 319 319 318 318 318 319 319 319 320 320 319 319 320 320
329 333 336 337 337 336 336 335 334 334 336 335 335 334 333 333 334 333 333 333 332 331 329 327 327 328 328 328 329 328 327 329 330 330 330 330 329 329 330 330 329 329 329 328 328 328 326 325 326 325 325 324 323 321 320 320 319 319 320 319 320 320 319 319 319 319 320 319 318 318 319 320 319 319 318 317 318 319 319 320 319 318 320 321 320
329 333 335 336 335 333 334 336 335 335 335 335 334 333 332 333 333 333 334 333 333 331 329 329 328 329 330 329 329 329 328 329 330 330 329 329 329 330 331 330 329 328 328 328 329 329 327 326 326 326 326 325 324 322 320 321 321 320 320 320 320 320 320 320 320 320 320 320 319 319 319 319 319 319 319 317 318 319 319 319 318 318 320 320 320
329 332 334 334 332 331 332 335 335 335 334 333 332 332 332 332 331 332 332 333 333 333 333 333 332 332 332 332 332 332 330 330 330 329 330 329 328 328 328 328 327 327 327 326 327 328 328 328 327 326 327 326 325 324 322 321 321 320 320 320 320 320 320 320 320 320 320 320 320 320 319 318 318 319 319 318 318 318 319 319 318 318 319 320 320
329 332 333 332 331 330 332 333 334 334 333 333 333 333 333 332 331 332 332 332 332 333 333 333 333 333 332 332 332 332 331 331 331 331 332 331 329 327 325 324 324 325 326 326 327 328 328 328 327 327 328 327 326 325 324 322 322 321 320 320 320 320 320 320 320 320 321 320 320 320 320 319 318 319 319 318 318 318 318 318 319 319 318 318 320
328 332 332 331 330 330 331 332 333 333 333 333 333 332 331 331 331 332 333 332 332 332 332 332 332 332 332 332 332 332 332 332 332 332 331 330 331 331 329 329 328 328 329 329 329 329 328 328 328 327 328 328 327 327 325 324 323 322 321 320 320 320 320 320 320 320 320 320 320 320 320 320 319 319 319 318 319 318 318 318 319 320 319 318 319
327 330 331 330 329 330 331 331 332 332 332 332 331 330 330 330 330 331 331 331 331 330 330 330 330 331 332 331 331 332 332 331 331 331 331 331 331 332 331 331 331 331 331 331 330 330 329 329 328 328 329 329 328 328 327 326 324 323 322 321 321 320 320 320 320 320 319 320 320 320 320 320 320 320 320 318 319 319 318 317 318 319 319 319 319
328 329 330 329 329 329 329 330 330 330 331 331 330 330 332 331 330 331 331 331 331 331 331 331 331 332 331 331 331 331 331 331 330 330 331 331 331 331 331 330 330 330 330 330 331 330 330 330 329 329 329 329 328 328 328 327 326 325 324 322 322 321 321 320 320 320 320 320 320 320 319 319 320 319 319 319 319 319 318 318 318 318 317 317 317
327 329 329 329 329 329 328 329 330 329 329 330 329 330 331 331 331 332 331 331 332 332 332 332 332 332 332 332 332 332 332 331 331 331 331 331 331 331 331 330 330 330 330 330 330 330 330 330 329 329 329 329 328 328 328 328 327 326 325 324 323 322 321 320 320 320 320 320 320 320 320 320 320 320 320 320 319 319 319 319 319 318 317 317 317
327 328 329 328 329 330 328 328 329 328 328 328 328 329 330 330 330 331 332 331 331 332 332 332 332 332 332 332 331 331 331 331 332 332 331 331 331 332 332 331 331 331 331 330 330 330 330 330 329 329 329 328 328 328 328 328 327 327 326 325 324 323 322 321 320 320 320 320 320 320 320 320 321 321 321 320 319 319 319 319 319 318 318 318 318
328 328 329 329 329 329 329 327 326 327 327 328 328 329 329 329 328 329 330 330 330 330 330 331 331 332 332 332 332 331 332 331 332 331 331 332 332 331 331 331 331 331 331 331 330 330 329 329 329 329 329 329 328 328 328 328 328 327 327 326 325 325 324 322 321 321 321 320 320 320 321 321 320 321 321 321 320 319 319 318 318 318 318 318 318
329 328 329 329 328 328 328 326 326 326 327 327 328 329 328 328 328 328 329 329 329 330 330 330 331 331 331 331 331 331 331 331 332 332 332 332 332 331 330 330 331 331 331 331 330 329 329 329 329 328 328 328 328 328 328 328 328 327 327 327 326 326 325 324 322 321 321 320 320 320 320 320 320 320 321 321 321 320 319 318 318 318 318 318 318
330 329 327 327 327 327 326 326 326 326 326 326 327 328 329 328 328 329 329 329 330 330 329 329 330 330 331 331 330 331 331 331 332 332 332 332 332 331 330 330 330 331 331 331 331 330 329 329 329 328 328 328 327 327 327 327 327 327 327 326 326 325 325 325 323 322 321 321 321 321 320 320 321 320 320 321 321 320 320 319 319 318 318 317 317
330 329 327 326 325 326 325 326 326 326 326 326 327 327 328 328 328 328 328 329 329 329 329 329 329 329 330 330 330 331 331 331 332 332 332 332 331 331 331 330 331 331 331 331 331 330 330 329 329 329 329 328 327 327 327 327 327 327 327 327 326 326 325 324 324 323 323 322 321 320 320 321 320 320 320 321 321 320 320 320 319 319 318 318 317
329 329 328 325 325 326 326 325 326 326 326 327 327 326 327 327 327 327 327 329 329 328 327 328 329 329 329 330 330 330 330 331 331 331 331 331 331 331 331 330 330 330 330 330 330 330 329 329 329 329 329 329 328 327 326 327 326 326 327 327 327 326 326 325 325 324 324 323 322 321 321 321 321 321 321 320 320 320 321 320 320 319 319 318 318
329 329 329 327 326 326 326 325 326 326 326 327 327 326 326 326 326 326 327 327 327 327 328 329 329 329 330 330 329 329 330 330 330 330 331 331 331 331 331 331 331 330 330 330 330 329 329 329 329 328 328 328 328 328 327 327 326 326 326 327 327 326 326 326 326 325 325 324 324 323 322 321 321 322 322 321 321 320 320 320 320 320 320 319 318
329 329 329 329 327 326 327 327 327 327 327 327 326 326 327 327 326 326 326 327 327 327 328 329 329 328 328 328 328 328 329 329 329 329 330 330 330 330 331 331 331 331 331 331 330 329 329 328 329 328 327 327 327 328 328 328 327 326 326 326 326 326 326 326 326 326 325 325 325 325 324 323 322 322 321 321 321 321 321 321 321 321 320 319 319
329 329 329 329 328 327 327 327 328 328 327 328 328 327 328 328 327 327 326 326 326 326 326 328 329 328 327 327 327 327 327 328 328 328 329 329 329 330 329 330 330 330 330 330 330 330 330 329 329 328 327 327 327 327 328 328 328 327 327 326 326 326 326 326 326 326 325 325 325 325 325 324 324 323 323 322 322 322 322 321 321 321 320 320 320
329 329 329 329 329 327 327 328 329 328 328 329 329 328 327 328 328 327 326 326 326 326 327 327 327 327 326 327 327 327 328 328 328 328 328 329 329 329 328 328 329 328 328 328 329 329 329 329 329 328 328 328 327 327 327 327 327 328 328 327 326 325 324 324 325 325 325 325 325 325 325 325 325 324 324 324 323 323 322 321 320 320 319 319 319
329 329 329 329 328 328 328 328 328 328 329 329 328 327 328 328 328 327 327 328 328 327 326 326 327 327 327 327 328 328 328 327 328 328 328 328 327 327 327 328 328 328 328 328 328 328 328 328 328 328 328 328 328 328 327 326 326 327 327 327 326 326 325 324 323 323 323 324 324 324 324 324 325 325 324 324 324 324 324 322 320 319 318 317 316
328 327 328 328 328 328 328 328 328 329 328 328 327 328 327 327 328 328 327 328 327 326 326 328 328 327 327 327 327 327 327 326 327 327 326 325 325 325 325 324 324 325 325 325 327 329 328 328 328 328 328 329 329 328 327 327 327 327 327 327 327 326 326 325 324 323 323 324 324 324 324 324 324 325 325 325 325 325 325 325 323 321 319 317 316
328 327 328 328 329 330 329 329 329 328 327 327 327 327 326 326 328 328 328 327 326 326 328 329 328 327 326 326 326 326 326 325 324 322 321 320 318 317 316 316 317 317 317 320 325 328 329 328 328 328 328 329 329 327 327 327 327 327 326 327 327 326 325 324 324 324 324 323 323 323 323 323 324 324 324 324 324 324 324 324 325 324 323 321 319
328 328 329 329 329 330 329 329 329 328 327 328 328 328 328 327 328 328 327 327 326 327 328 327 326 326 326 326 326 325 323 320 318 317 317 316 314 314 316 318 318 317 318 321 324 327 328 328 328 328 327 327 327 326 326 324 324 325 326 327 327 326 326 325 325 325 324 324 324 323 323 323 323 324 324 324 324 324 323 323 323 324 324 323 322
328 330 331 330 329 328 326 326 328 329 329 330 329 329 328 328 328 327 327 327 326 326 327 326 326 326 326 325 323 322 319 317 317 318 317 316 315 317 321 322 320 319 321 324 324 325 326 326 326 326 326 326 326 326 326 324 323 324 326 327 328 327 327 326 325 325 325 325 326 325 323 323 323 324 323 322 323 325 324 323 322 321 321 323 324
330 331 332 330 328 326 324 325 329 330 331 331 330 329 329 328 327 327 327 326 326 326 326 325 325 325 325 324 322 321 319 317 318 321 320 318 319 321 323 323 321 321 324 325 324 324 324 324 324 325 326 326 326 325 325 324 324 325 326 327 326 325 324 324 323 323 323 324 324 323 322 322 322 323 322 322 322 323 322 322 323 323 322 322 321
332 331 332 330 328 326 325 326 328 329 330 330 329 329 328 327 327 327 327 325 325 326 325 325 325 324 325 325 323 323 321 317 319 323 321 320 322 322 323 323 322 322 324 323 323 323 323 322 322 322 324 325 325 324 323 322 321 322 322 322 321 320 320 320 321 321 322 322 322 322 322 322 323 323 323 322 321 322 322 323 323 323 323 323 321
335 331 331 330 328 326 325 325 326 327 328 329 329 328 327 326 325 325 324 323 324 325 325 324 324 324 324 323 322 324 321 316 320 324 320 317 320 322 322 322 321 322 322 322 322 322 322 321 321 321 321 322 323 323 322 321 319 318 318 317 316 316 316 317 318 319 319 320 321 320 320 321 322 323 323 322 322 322 323 323 322 322 323 323 321
337 333 331 329 327 326 327 327 328 328 328 327 327 326 324 323 322 322 322 323 324 323 324 324 322 323 323 319 319 321 317 314 320 323 317 315 318 320 319 319 319 320 321 320 320 320 319 320 320 320 319 320 322 322 321 321 320 318 317 316 315 314 314 313 314 315 315 316 317 317 318 318 319 320 321 321 322 322 322 321 321 321 321 321 320
336 333 330 329 328 329 329 328 328 328 328 327 325 323 321 320 320 320 321 322 322 322 322 320 319 320 318 315 316 318 314 313 319 319 314 315 317 315 314 315 316 317 317 317 316 316 316 318 318 318 318 319 319 319 320 320 319 318 317 316 315 314 313 312 312 312 312 313 314 314 315 315 315 315 316 316 318 319 320 320 320 320 320 321 321
333 331 330 329 329 329 328 327 327 327 326 325 323 321 320 319 318 318 319 320 320 319 318 316 315 316 314 312 315 316 313 314 317 316 313 315 315 313 312 314 314 314 314 314 313 313 314 316 316 317 317 317 317 318 319 319 318 316 315 314 313 313 312 312 312 311 311 312 312 313 315 315 314 313 312 313 314 315 317 319 319 320 321 321 322
331 330 329 328 327 327 326 325 325 323 322 321 319 319 319 317 316 316 318 318 317 315 315 315 315 316 314 312 314 316 313 313 316 315 314 315 315 313 312 313 313 313 312 312 312 312 312 313 314 314 315 315 315 317 317 317 316 315 312 309 309 310 310 310 311 311 311 311 311 313 314 314 312 311 311 311 311 312 314 315 316 317 319 319 319
329 328 327 326 325 324 323 322 322 321 320 319 318 318 317 316 316 316 316 316 315 314 314 315 315 315 314 313 314 315 313 313 315 315 314 314 314 313 312 312 313 312 310 310 310 310 310 311 311 310 311 313 315 315 315 316 315 312 307 304 304 304 304 305 306 306 307 308 308 309 309 309 308 308 308 308 308 310 312 313 313 313 315 315 315
328 326 326 325 323 322 320 320 320 319 318 318 318 317 316 315 315 315 315 316 315 314 316 316 315 314 314 312 313 315 312 312 313 314 312 313 314 313 312 312 313 312 310 309 309 309 309 309 308 307 309 312 313 313 314 314 312 306 302 301 301 301 301 301 301 301 302 302 303 303 303 303 303 303 302 302 303 304 307 309 311 312 313 313 313
326 325 325 324 322 321 320 320 319 319 319 319 318 316 314 313 314 315 316 316 314 313 315 316 315 314 314 312 312 313 312 311 312 312 310 311 312 311 311 311 312 312 311 309 309 309 309 308 308 307 308 310 310 310 311 310 306 303 302 302 302 302 302 301 301 301 300 301 301 301 301 301 302 301 301 303 304 305 305 306 308 310 312 313 314
325 325 324 323 322 321 321 321 320 319 318 317 316 314 314 315 316 316 316 317 315 314 315 315 314 314 313 311 311 312 311 310 311 310 310 310 310 310 310 310 311 311 310 309 308 309 309 309 309 308 308 308 308 308 308 306 304 304 304 303 303 303 303 303 303 302 302 301 301 302 303 304 304 305 307 310 312 312 311 310 310 311 312 314 315
324 324 323 322 322 321 321 321 320 318 316 316 317 317 316 316 316 316 316 316 315 314 315 315 313 313 312 311 311 311 311 310 310 310 309 309 309 309 308 309 310 310 309 308 308 308 309 309 309 309 309 309 308 308 307 306 306 306 305 303 302 301 302 303 303 304 303 302 303 306 306 306 308 310 313 313 314 314 314 314 314 314 314 315 315
323 322 322 322 322 321 320 320 319 317 317 317 317 317 316 315 315 315 315 315 314 314 314 314 312 312 311 310 310 310 310 310 309 309 309 309 308 308 307 308 309 310 309 308 308 308 308 308 308 309 309 309 308 308 307 307 307 307 307 304 301 300 301 302 303 304 304 304 306 308 308 308 311 313 313 312 312 313 313 314 314 314 315 315 315
322 322 322 321 321 319 318 317 316 316 317 317 316 316 315 315 315 315 314 314 313 313 313 312 312 311 310 309 309 310 309 309 309 308 309 308 308 307 306 307 309 310 309 308 308 308 308 308 308 308 308 308 308 307 307 307 307 307 307 305 302 300 302 303 304 306 307 307 308 308 308 310 312 312 311 310 311 311 311 312 312 313 314 315 315
322 322 322 320 319 317 316 315 315 315 316 316 316 315 315 314 314 314 313 313 312 312 312 312 312 311 310 309 309 310 309 309 308 308 308 308 307 306 306 307 309 309 308 308 308 308 308 308 308 307 307 308 308 307 307 307 307 308 307 305 302 302 303 305 306 308 308 308 308 308 309 310 310 309 309 309 309 309 310 310 310 311 312 314 314
Wind_Speed
8 6 3 4 8 7 6 7 7 7 6 6 6 4 3 4 3 2 2 3 3 3 2 2 2 3 4 5 7 7 6 5 7 6 4 5 7 7 7 9 11 12 8 9 15 13 11 14 12 7 7 9 11 11 11 12 12 11 8 7 7 7 9 12 10 8 10 9 7 5 3 5 5 4 5 5 5 4 4 4 4 4 4 4 5
8 6 4 4 5 6 7 7 7 8 7 6 5 4 3 3 3 2 1 2 3 2 2 2 3 3 4 5 5 6 6 5 6 6 6 8 8 7 7 10 9 10 8 11 17 12 8 11 14 10 7 9 9 10 9 10 13 12 9 7 6 6 9 13 10 9 11 10 8 6 4 3 3 4 5 4 4 4 4 4 3 3 4 4 4
7 7 6 4 5 6 7 7 8 8 7 7 5 4 3 3 2 1 0 1 2 2 2 3 3 4 4 4 4 4 5 5 6 6 6 9 8 6 7 9 7 8 10 11 17 15 8 8 13 13 8 9 9 10 9 8 11 11 10 9 5 6 8 11 12 11 10 11 8 6 6 4 4 6 6 5 5 4 4 6 5 5 4 4 3
8 8 7 5 5 5 7 7 8 8 8 7 6 5 4 2 2 1 1 2 2 2 3 3 3 3 4 5 4 4 4 5 5 6 6 8 7 6 7 8 5 5 8 9 13 16 11 8 8 14 11 10 9 11 10 8 9 9 9 9 6 6 9 10 13 12 10 12 12 8 5 4 6 10 9 7 6 4 5 6 7 8 7 5 3
9 8 7 6 5 4 5 7 8 8 8 7 7 6 4 2 1 1 1 2 2 3 4 4 4 4 4 5 5 5 6 6 6 6 6 6 6 6 7 8 6 8 7 8 9 12 12 9 8 10 12 10 8 8 9 9 9 7 6 6 3 6 10 10 10 11 10 10 12 11 6 5 8 11 10 8 6 4 5 7 8 10 10 7 5
10 9 7 6 5 4 4 6 7 7 8 7 7 6 5 4 2 1 1 1 1 2 3 4 3 3 4 5 6 6 6 6 6 6 5 6 6 5 6 8 7 8 6 7 7 8 11 9 7 8 9 9 9 6 7 9 10 6 7 7 3 6 9 9 6 7 9 7 9 11 8 6 9 11 10 9 7 4 4 5 6 8 10 8 7
9 9 8 7 6 4 4 4 6 7 7 7 7 7 6 5 3 2 1 1 2 1 2 3 3 3 4 4 5 5 5 5 6 5 5 6 6 5 6 7 6 6 5 5 5 7 9 8 8 8 7 6 8 8 7 7 8 7 8 8 5 4 6 10 7 5 8 7 7 8 7 6 9 10 9 9 8 7 6 3 4 8 11 9 8
11 10 9 7 6 4 4 3 5 7 7 6 6 7 7 6 4 2 1 1 1 1 2 3 3 3 3 3 4 4 5 6 6 5 6 5 5 6 6 7 7 5 4 3 3 8 9 6 7 9 8 6 6 8 8 7 10 11 10 9 7 7 6 8 8 7 8 6 6 7 6 4 5 6 7 8 9 10 9 4 3 9 12 10 9
13 12 9 8 6 5 4 3 4 7 8 6 6 6 6 6 5 3 2 1 0 1 2 2 3 3 3 3 4 4 4 5 5 3 5 4 4 6 5 6 7 4 3 4 2 6 9 5 5 7 8 9 7 7 8 9 10 10 10 12 11 11 9 8 8 9 8 6 6 6 4 3 5 6 6 5 6 9 9 7 7 9 9 9 8
13 12 10 9 7 6 4 3 5 7 7 6 6 4 3 4 5 4 2 1 1 1 1 3 3 3 3 3 4 4 3 5 5 4 5 5 4 5 6 5 5 5 4 5 4 4 6 5 4 5 8 10 7 6 7 7 8 7 8 12 11 10 11 10 9 9 8 8 8 8 6 6 8 10 8 6 7 9 8 7 9 9 9 9 5
12 12 12 10 8 6 5 4 6 7 7 6 6 5 2 1 3 4 3 2 1 2 1 2 3 3 3 4 4 4 4 4 5 5 5 6 5 6 7 6 4 5 5 3 2 2 3 4 4 4 7 7 5 6 6 5 7 7 7 7 7 7 8 10 9 8 7 9 9 10 9 8 8 9 7 6 8 10 7 6 10 10 8 6 4
11 13 14 12 8 7 6 5 6 6 7 7 6 5 3 2 1 1 2 2 2 2 1 2 3 3 3 4 4 4 5 4 4 5 4 4 5 6 6 6 5 5 6 5 3 2 3 2 2 3 5 5 4 4 5 5 4 6 5 4 4 4 4 7 9 8 8 7 7 7 7 7 9 8 4 3 7 8 7 9 12 9 5 6 5
13 14 14 12 9 8 6 6 6 6 7 6 6 5 4 2 1 1 2 3 2 2 2 2 2 3 3 4 4 4 5 4 4 4 4 5 4 5 5 5 5 6 6 5 5 7 7 2 1 4 4 6 4 2 2 4 3 3 5 5 5 5 4 5 5 5 5 4 4 4 4 6 9 8 6 3 4 7 7 10 10 4 6 10 7
14 15 14 12 9 8 7 6 6 6 6 6 5 5 4 2 2 2 2 3 2 2 3 3 3 3 3 3 4 5 5 5 6 5 5 6 5 5 5 5 5 6 5 5 6 7 8 3 1 4 4 5 6 4 3 4 3 3 4 4 6 7 8 7 5 5 6 5 6 4 3 6 5 6 9 6 3 6 8 10 9 5 8 10 7
14 14 13 11 9 8 7 6 7 6 6 6 4 4 4 3 2 0 1 3 4 4 3 3 4 4 5 5 5 5 5 4 4 6 6 7 6 5 5 6 7 7 5 6 6 7 7 5 2 5 7 6 5 7 5 2 6 9 6 4 6 7 9 8 6 6 5 6 8 4 3 5 3 4 9 7 4 5 5 7 9 8 11 11 8
13 14 13 12 9 8 8 8 8 7 7 7 5 5 4 3 3 2 1 1 3 4 3 3 4 3 3 5 4 4 6 6 6 6 6 7 7 5 5 6 7 7 7 7 7 7 8 7 5 4 7 7 6 7 6 2 4 8 6 5 4 5 7 6 5 6 5 6 8 6 5 5 2 2 6 7 7 6 3 3 6 8 12 12 12
11 15 13 11 9 8 9 9 8 9 8 7 6 5 5 4 3 3 2 1 1 2 2 2 3 3 3 4 4 3 4 5 7 7 6 7 9 8 8 8 7 7 7 8 7 8 8 8 7 6 6 8 7 7 7 7 6 6 6 6 5 5 6 6 6 6 5 6 8 6 6 6 4 3 5 8 10 8 5 3 2 7 9 10 13
9 13 12 11 10 9 10 9 9 9 8 7 7 5 5 4 3 3 2 1 1 1 1 2 3 3 3 4 5 5 5 4 5 6 7 8 8 8 9 9 9 8 7 9 9 8 8 8 8 8 8 8 8 8 9 9 10 9 6 7 7 7 7 7 7 5 6 7 6 5 7 8 7 5 5 6 8 10 8 3 3 5 7 7 10
8 11 11 10 10 10 10 10 9 8 7 7 7 5 4 4 4 3 2 2 2 1 1 2 2 2 3 4 4 5 5 5 5 6 8 8 7 7 8 8 8 8 7 8 10 9 9 9 8 9 10 10 11 11 10 9 11 12 9 8 7 8 9 8 7 7 8 8 5 5 7 8 8 7 7 6 6 10 11 6 3 5 6 7 7
7 10 11 10 10 11 10 10 10 8 8 8 6 5 4 3 3 3 2 2 2 2 2 2 2 3 4 4 5 5 6 6 6 7 8 8 8 8 8 7 8 8 7 7 9 10 10 10 10 10 11 12 13 13 12 10 11 13 13 10 8 8 10 11 10 9 9 8 8 9 10 8 8 8 8 6 6 9 13 11 8 7 6 9 9
7 9 12 11 10 11 10 9 9 8 9 8 5 5 5 4 3 3 2 1 3 4 4 4 4 5 5 5 6 6 7 7 7 8 9 9 10 10 9 9 9 9 9 9 9 10 11 11 11 11 11 12 13 14 14 12 11 12 13 13 11 9 9 11 12 10 9 10 11 12 11 9 9 10 9 8 7 8 12 12 10 9 8 7 7
7 8 11 11 11 11 10 9 8 9 9 7 5 5 5 3 3 4 2 1 3 4 5 6 6 7 7 6 7 7 7 8 8 9 10 10 10 10 10 11 10 10 10 11 10 10 11 12 12 12 12 13 13 14 15 15 13 12 13 15 16 13 10 11 11 12 12 12 12 15 13 10 10 11 10 10 10 9 11 11 10 12 13 9 5
7 9 11 11 11 11 10 9 9 9 8 6 6 6 5 3 2 3 3 3 3 4 4 5 6 7 7 8 9 9 8 9 9 10 10 10 10 10 10 10 11 11 10 11 12 11 11 13 13 13 13 14 14 14 16 17 16 14 14 16 18 17 14 13 12 14 15 13 14 16 14 12 12 11 12 13 12 11 11 11 11 13 16 12 10
8 9 11 11 11 11 11 10 10 10 8 7 7 6 5 4 3 3 3 4 3 4 4 4 6 7 8 9 9 9 9 10 11 11 11 11 11 11 11 10 10 11 11 11 12 13 12 12 13 13 13 13 14 15 16 18 18 17 16 16 18 19 19 17 14 14 15 14 13 14 15 15 14 14 15 15 14 12 11 12 11 10 11 12 13
9 9 10 10 11 11 11 10 10 11 10 8 7 6 6 5 4 3 4 4 3 3 4 4 6 7 8 9 9 9 9 9 11 11 11 12 12 12 12 11 11 11 12 13 13 14 14 14 14 14 13 13 14 15 16 17 19 19 18 17 17 18 19 19 17 17 18 17 15 16 17 17 15 16 17 17 16 15 13 13 12 12 12 12 13
10 10 9 10 10 10 10 10 10 11 11 10 8 6 7 6 5 4 3 3 3 3 3 3 5 5 6 8 8 9 10 10 11 11 12 12 12 12 13 12 12 12 13 14 14 15 15 16 15 14 14 15 15 15 15 16 18 19 20 20 18 17 18 20 20 21 21 21 20 20 19 18 17 17 18 19 19 18 15 16 16 15 15 14 14
10 11 10 9 9 8 8 8 6 6 9 10 9 7 8 8 5 3 3 3 4 5 4 3 4 5 5 6 6 8 9 10 11 12 12 13 13 13 13 14 14 14 15 15 16 16 16 16 17 17 17 17 16 16 16 17 18 19 20 21 20 19 20 21 23 22 22 21 22 22 21 20 19 19 19 19 20 20 19 20 19 17 16 17 17
11 11 11 9 8 7 7 7 5 3 3 4 4 3 5 6 4 4 5 5 5 6 4 3 5 6 6 7 7 8 9 10 12 13 13 14 14 15 15 15 16 16 17 17 17 18 18 18 18 18 18 19 20 19 19 19 19 19 20 21 21 21 21 22 23 23 22 21 21 22 23 23 22 21 21 20 19 20 21 21 21 19 18 18 18
11 11 11 11 10 9 7 7 6 3 1 1 1 2 1 1 3 4 5 6 6 7 6 4 5 6 8 9 9 10 11 11 13 14 15 16 16 17 18 18 18 18 18 19 21 22 21 20 21 21 21 21 22 24 23 22 22 21 21 21 22 22 22 22 23 23 22 22 22 23 23 23 23 23 24 23 22 23 24 24 24 23 21 20 19
12 13 12 11 11 12 10 8 7 5 4 3 3 3 4 4 5 6 6 7 7 9 8 6 5 6 8 9 10 10 11 12 13 13 14 16 16 17 17 18 19 19 19 20 23 24 23 23 24 26 25 23 23 25 26 25 25 25 24 23 23 23 23 23 23 23 23 24 24 24 24 25 24 24 25 25 25 26 28 28 27 26 24 22 21
12 14 14 13 12 12 12 10 8 7 6 5 5 5 6 6 6 6 6 6 6 8 7 5 4 7 8 9 10 9 10 12 13 12 12 14 15 16 17 18 19 20 21 21 22 23 24 25 27 28 27 26 26 27 27 27 26 27 28 27 25 24 24 24 24 24 25 25 25 25 25 25 25 25 26 26 27 27 28 28 28 29 28 26 24
10 10 12 14 14 14 14 12 10 8 6 5 6 5 4 4 4 4 5 4 4 6 6 4 5 6 7 8 9 8 9 11 12 11 12 14 15 16 17 18 18 20 21 22 22 23 24 25 27 28 29 28 28 29 29 29 28 28 28 29 28 27 27 27 26 26 27 27 26 26 26 27 27 26 25 26 28 28 29 28 27 27 28 28 27
5 3 4 6 9 14 16 13 9 6 5 4 5 5 5 3 2 1 2 2 3 4 3 3 3 5 6 6 7 8 8 9 9 10 12 15 16 17 19 20 21 21 21 22 23 23 24 25 26 28 29 30 29 28 29 29 30 30 29 30 31 31 31 30 27 26 27 26 26 26 27 28 28 27 27 28 28 29 30 31 30 28 27 27 27
6 2 2 4 6 11 13 12 10 8 7 6 6 5 3 1 2 1 1 1 2 2 0 2 3 5 6 6 6 7 7 9 12 15 16 18 19 20 22 23 23 22 22 22 21 22 24 26 26 26 27 27 26 26 26 27 30 31 31 34 34 32 32 32 30 30 29 29 30 29 28 29 29 29 31 31 31 31 32 33 34 33 31 29 27
7 5 6 6 6 7 9 10 10 8 8 6 5 3 2 3 3 2 2 3 3 4 3 3 4 4 5 5 5 8 11 15 17 18 19 20 21 22 21 20 20 20 19 19 19 20 22 23 23 23 22 22 22 22 22 23 25 26 27 32 35 33 32 33 33 33 32 33 34 33 31 31 31 30 32 33 34 34 33 33 34 35 34 32 30
9 8 9 9 9 9 9 11 11 9 7 7 6 6 5 5 5 5 5 5 5 7 6 5 4 5 5 6 9 12 15 18 18 17 19 20 20 20 18 18 19 19 18 18 19 19 19 20 19 19 19 19 19 19 19 20 20 20 21 25 29 30 31 32 32 32 31 31 33 33 32 33 32 32 32 34 35 33 31 32 34 35 36 35 32
12 12 11 11 11 11 11 12 13 12 11 9 8 8 8 8 7 7 7 7 7 7 7 6 6 7 6 8 12 14 17 19 16 15 17 19 19 18 17 18 20 19 17 18 19 19 19 18 17 17 18 18 18 18 17 17 17 17 18 21 24 26 27 28 27 27 28 29 30 32 34 34 33 31 29 30 32 32 32 35 35 34 34 34 34
15 14 13 13 13 12 13 13 13 14 13 12 11 11 11 10 9 8 7 6 7 7 7 7 7 8 8 9 12 13 17 18 15 13 16 17 16 17 17 19 20 19 17 18 19 19 20 19 19 19 19 18 17 17 16 16 15 15 17 19 21 22 23 23 22 22 23 24 25 26 29 30 30 30 28 27 29 31 32 33 34 33 33 34 34
16 15 15 15 14 14 14 13 12 12 13 13 13 12 10 9 8 7 5 5 7 7 7 7 7 8 7 8 11 12 16 17 14 13 16 16 15 16 16 17 18 17 17 18 19 19 19 19 18 19 19 18 16 15 16 16 15 15 17 19 19 19 19 19 20 20 21 21 22 23 24 25 25 27 28 27 27 27 27 26 26 28 31 32 31
15 16 17 16 15 15 15 14 14 13 12 12 12 11 9 7 6 5 6 7 7 7 7 7 8 7 7 10 11 11 15 15 12 13 16 15 14 14 15 16 16 16 16 17 18 18 18 18 17 17 19 18 15 15 16 16 15 16 18 19 18 18 18 18 18 19 19 19 19 19 20 21 22 24 26 27 27 27 26 24 24 27 31 32 30
18 19 18 17 16 17 17 17 16 14 13 11 9 8 7 6 4 4 6 6 6 7 6 6 7 8 10 13 12 12 15 14 11 14 16 15 14 15 15 16 16 16 16 16 17 17 17 18 16 15 17 18 17 16 16 15 15 16 18 18 19 19 21 20 19 19 19 19 18 18 19 18 19 21 23 25 27 27 27 28 28 31 33 31 29
19 19 19 19 19 18 18 17 15 13 13 11 7 6 4 3 3 4 5 6 5 4 5 9 10 10 11 13 11 12 15 13 11 16 16 14 14 16 16 16 15 16 16 17 17 17 17 17 16 15 15 18 19 17 14 14 16 17 18 19 19 20 21 22 22 21 20 19 19 19 19 19 19 20 22 23 24 24 26 27 27 29 30 29 27
19 19 19 19 19 18 16 15 13 11 9 6 3 3 3 4 5 5 4 3 5 7 9 11 10 9 11 13 11 12 14 13 12 16 16 13 14 16 16 15 15 15 17 18 18 18 18 18 17 16 16 17 18 16 14 15 16 18 21 21 21 20 20 21 22 22 22 22 21 20 21 22 23 24 24 24 24 24 25 25 26 26 27 27 26
18 18 17 17 18 17 16 14 10 7 5 3 2 2 3 4 5 4 4 5 8 9 9 9 8 8 11 13 11 11 13 13 12 14 14 13 15 14 14 14 14 15 17 19 18 18 18 18 17 16 16 16 16 16 16 17 18 20 23 23 22 22 22 22 22 22 23 23 23 24 24 25 26 27 26 26 26 26 26 26 26 25 24 24 23
18 17 17 16 16 14 12 11 9 7 5 1 3 3 4 5 5 5 5 6 7 8 8 8 8 9 10 12 11 11 14 14 13 14 15 14 15 15 14 14 14 15 17 20 20 18 18 18 17 17 16 15 15 15 16 18 21 23 23 22 22 23 24 24 25 25 25 25 25 26 27 27 27 28 28 27 27 27 26 26 26 25 24 24 25
18 18 16 15 13 12 10 8 5 3 1 5 6 4 3 5 5 6 6 4 5 6 6 7 8 8 9 11 10 11 14 15 13 14 14 15 16 17 17 16 14 14 17 20 20 19 17 17 18 18 16 15 15 16 18 22 24 25 25 24 25 25 25 25 26 26 27 28 29 28 28 28 28 27 25 24 23 23 23 22 22 22 23 23 23
17 16 15 14 12 8 5 3 4 6 5 4 2 2 5 7 7 6 4 3 6 7 6 6 8 9 10 12 10 10 13 14 14 14 14 14 16 17 17 17 14 13 16 18 19 19 17 17 17 17 16 17 17 18 22 25 26 26 27 28 28 28 27 27 27 27 28 29 29 27 27 27 26 24 21 21 21 22 21 20 20 20 21 20 20
16 16 13 8 4 4 5 4 4 4 1 3 3 4 6 6 6 4 4 4 6 6 5 7 8 9 12 13 10 11 13 14 14 14 13 14 17 17 18 17 14 13 16 19 20 19 17 17 17 17 16 18 20 21 25 28 27 26 28 30 30 30 29 28 27 27 28 28 26 25 27 27 25 23 23 24 24 24 24 23 22 22 22 21 21
16 13 6 6 7 5 3 6 5 4 4 4 4 5 6 6 5 4 4 5 5 5 5 7 8 8 11 10 9 12 14 14 15 16 15 15 16 16 18 18 14 13 17 20 20 18 16 17 18 18 18 19 21 24 27 28 27 27 29 31 31 30 29 28 27 26 27 26 24 25 28 27 24 23 24 24 24 24 24 24 23 22 23 23 23
13 9 6 4 6 9 10 9 6 6 5 4 6 7 6 4 3 4 4 5 6 5 6 7 8 9 10 9 9 13 14 13 15 17 17 17 16 16 19 18 15 15 20 22 20 18 17 18 20 20 20 20 21 26 28 28 27 27 29 31 31 28 26 26 26 25 24 23 24 27 28 26 24 23 24 24 24 25 25 24 25 25 24 23 23
10 7 8 13 14 11 8 5 5 6 6 6 6 6 4 3 3 2 2 2 5 6 7 8 9 11 12 10 11 14 13 13 17 18 16 18 19 19 19 18 16 18 22 22 19 18 19 21 22 22 21 20 22 26 27 26 26 27 30 31 30 26 25 25 25 23 22 23 25 26 26 25 25 25 24 23 23 24 24 24 26 26 25 24 23
Wind_Direction
113 127 142 137 144 159 175 180 190 189 188 187 182 186 180 176 212 282 350 17 29 26 353 334 328 337 349 349 359 360 353 358 351 5 17 342 1 30 60 60 15 10 28 349 347 7 12 360 3 24 41 37 16 8 15 7 6 10 356 351 12 7 337 332 336 4 20 359 335 342 22 52 43 46 52 58 67 57 45 53 61 61 57 50 34
114 129 135 128 147 166 173 180 188 186 190 193 184 182 182 177 195 242 328 8 20 30 356 349 4 6 2 356 7 1 349 355 349 358 358 346 9 25 51 67 36 28 38 340 338 5 26 7 7 15 33 45 19 3 24 18 4 7 7 8 36 39 353 338 347 13 17 1 343 343 359 25 32 36 45 52 57 47 18 16 30 48 46 49 50
122 131 133 139 158 172 175 179 184 187 189 190 189 183 183 182 180 203 62 27 0 22 11 359 17 10 2 7 17 0 347 345 340 1 1 345 9 22 37 61 47 39 44 355 341 358 36 34 7 3 28 56 30 6 26 30 10 12 18 11 19 63 35 358 357 3 8 13 10 353 339 339 8 23 26 26 23 25 22 15 11 16 24 41 48
136 136 136 141 147 167 179 178 179 185 185 183 193 192 188 183 128 113 70 48 14 34 29 19 23 7 8 13 12 5 357 348 337 356 352 338 3 15 23 50 58 54 41 2 347 352 18 68 30 359 16 59 49 19 22 18 8 19 25 13 7 56 54 27 9 4 14 26 18 1 342 354 12 11 6 353 353 10 20 18 17 13 4 5 20
144 140 138 143 141 152 173 179 178 179 179 182 196 192 186 192 141 115 61 46 34 39 31 25 19 8 19 6 2 14 4 353 342 344 339 331 355 5 6 21 49 80 49 349 345 352 6 53 63 14 15 36 39 30 31 7 357 15 16 0 22 55 41 32 21 18 24 25 21 15 11 21 11 5 3 347 346 2 9 10 14 14 7 358 355
143 140 137 140 136 129 148 173 177 177 179 181 192 187 176 193 192 144 93 53 52 41 13 19 22 8 14 358 353 4 355 347 336 332 335 337 358 359 346 4 41 83 61 354 353 359 4 23 40 42 36 17 5 22 47 18 3 18 11 1 66 75 36 30 36 40 36 35 39 27 14 13 358 358 6 354 357 6 346 359 13 19 17 6 353
140 143 142 140 137 131 130 165 178 177 176 175 185 183 172 187 197 168 119 53 61 64 352 10 29 14 2 348 341 345 340 333 330 339 349 343 357 352 332 352 30 79 66 13 350 349 6 19 15 33 50 26 8 21 42 25 12 26 25 19 41 60 47 39 32 35 36 49 67 37 23 17 344 349 7 356 358 357 339 8 44 18 12 4 350
151 147 142 141 140 138 126 146 173 166 170 177 181 179 172 180 188 180 165 106 55 47 13 4 23 13 351 346 339 340 338 333 341 355 345 327 331 341 339 342 6 62 69 22 327 334 358 22 11 9 20 31 34 29 28 21 25 28 20 20 24 24 47 43 25 20 20 38 78 59 44 30 344 358 27 12 358 351 350 25 39 7 3 356 346
150 144 141 142 136 136 128 123 148 155 168 177 174 182 182 176 182 195 197 188 178 47 26 0 15 11 350 352 339 337 338 327 336 335 311 310 313 324 333 327 346 20 40 68 94 320 340 10 25 8 3 21 41 36 26 21 32 35 15 18 31 28 28 35 32 24 13 20 55 58 49 35 38 47 45 38 21 359 354 360 360 358 354 346 344
136 137 142 143 140 140 135 126 141 155 164 165 166 187 193 170 183 199 210 231 321 341 3 356 3 6 350 339 325 326 327 311 320 325 317 335 333 318 322 321 338 341 355 82 139 274 328 357 29 10 346 5 30 38 32 13 16 39 29 23 33 30 15 20 37 29 14 20 28 31 26 16 29 34 31 41 28 4 353 351 355 353 347 349 346
138 141 141 139 142 138 135 135 141 153 156 154 162 174 188 187 190 194 208 234 282 298 334 345 340 353 337 331 333 318 314 313 322 328 324 332 329 316 318 321 327 322 333 42 132 242 323 340 18 6 333 352 23 27 22 2 3 26 41 32 30 36 20 10 23 27 19 27 29 23 23 15 5 6 18 31 15 359 352 349 345 339 338 347 331
139 140 137 135 140 134 137 144 141 151 151 152 158 160 185 252 280 205 219 234 246 277 307 322 325 342 318 318 336 315 312 322 313 315 314 310 310 303 308 319 322 318 326 351 353 297 294 312 353 326 322 345 21 39 0 337 7 13 12 25 11 21 42 18 17 27 23 25 31 21 20 13 349 335 333 17 21 4 342 331 330 327 322 315 294
125 135 136 134 140 137 141 144 145 154 151 154 160 157 171 208 260 281 269 261 253 255 281 308 312 324 315 311 327 323 324 326 312 315 307 294 301 297 297 307 302 303 311 319 312 300 307 333 296 304 330 337 344 56 340 330 45 30 348 355 351 344 17 32 21 20 11 4 27 35 40 16 354 343 332 336 30 6 337 328 324 314 318 314 299
129 134 133 132 137 138 144 147 146 154 152 156 165 164 167 181 225 269 274 272 294 294 288 313 321 328 335 325 322 325 332 333 328 330 317 305 314 312 309 308 296 293 293 289 283 284 301 323 287 292 311 315 311 312 332 348 350 343 332 327 343 352 1 16 19 5 356 353 8 32 49 17 359 349 343 340 14 356 339 333 320 308 321 315 310
123 124 127 132 135 136 142 145 143 148 152 154 159 162 160 169 195 220 257 267 307 331 317 326 344 348 338 329 335 339 335 335 323 318 319 318 317 311 307 306 306 309 303 293 287 281 291 301 269 252 267 281 285 295 322 352 303 315 325 330 347 348 345 358 2 355 351 344 352 359 7 1 341 335 343 340 344 338 338 339 326 326 332 322 332
119 126 130 132 136 141 143 145 145 146 149 150 152 147 141 151 159 138 144 229 295 322 326 323 331 333 315 314 327 327 328 339 342 336 333 327 325 323 308 298 299 304 304 302 299 292 294 298 291 260 260 270 266 280 301 267 270 302 314 335 350 322 323 336 321 328 343 331 336 342 344 354 8 348 332 319 313 300 278 325 335 335 329 324 336
115 124 129 131 135 143 143 144 146 146 149 147 148 145 142 152 151 144 154 158 239 297 300 290 299 297 284 300 314 310 315 330 337 336 325 317 325 334 333 330 324 313 311 313 307 296 291 293 290 276 261 265 256 254 275 278 275 281 290 312 317 293 296 302 299 316 329 315 321 330 326 333 341 328 314 313 316 309 278 229 287 329 317 316 327
105 119 129 133 137 143 145 149 147 148 152 148 153 159 156 156 147 144 156 151 169 239 264 267 285 293 296 314 323 325 330 334 327 316 311 317 326 330 330 331 329 324 319 313 312 306 297 295 289 281 279 279 266 249 248 261 277 280 274 279 285 284 288 300 312 312 298 299 315 324 311 314 320 314 310 311 309 314 310 242 230 308 300 298 313
126 130 137 138 145 150 149 152 148 151 160 157 163 170 156 150 151 157 163 165 184 211 257 283 292 284 287 300 301 305 313 323 316 297 302 316 320 313 310 312 311 313 314 306 309 312 306 303 299 291 288 285 282 274 257 244 256 272 276 268 270 278 282 291 299 294 294 298 301 299 293 296 302 299 296 293 286 297 306 304 279 278 264 261 281
130 136 139 142 153 156 156 161 157 159 165 164 171 173 171 172 159 164 181 201 225 257 283 288 279 272 278 285 289 292 292 300 305 299 301 307 305 300 298 297 295 297 301 300 300 306 306 304 303 301 295 288 289 288 278 257 241 255 271 272 266 267 267 274 283 289 292 286 280 285 287 283 282 286 290 289 283 286 292 299 302 297 281 262 258
107 128 135 138 152 159 163 168 166 163 164 169 179 178 185 208 214 203 215 266 263 276 293 292 283 279 280 284 291 294 292 298 306 305 304 303 303 306 305 301 299 295 298 300 298 298 297 294 292 291 287 283 286 285 283 276 250 245 261 267 267 267 259 260 269 274 274 272 274 280 283 280 275 278 284 284 286 285 283 286 292 303 305 287 265
120 135 141 145 157 164 166 168 168 168 170 179 188 185 188 212 235 228 236 284 263 268 286 291 294 295 293 292 293 293 293 295 294 293 300 302 302 303 302 301 301 302 304 306 304 297 290 289 287 284 279 277 280 279 277 277 267 254 255 256 260 267 264 257 255 258 265 267 267 271 272 273 275 273 266 268 277 275 270 270 273 286 291 285 277
142 141 146 154 161 166 169 170 169 170 179 188 189 192 191 189 203 207 219 238 243 255 263 267 277 282 284 286 289 291 291 292 292 294 300 302 301 300 297 294 295 297 299 297 294 290 287 288 288 286 281 276 275 274 272 275 274 266 258 254 257 265 270 265 254 253 260 263 263 264 263 265 276 273 258 263 277 276 267 260 255 271 280 271 270
150 140 149 160 162 168 170 172 175 175 182 186 185 196 193 186 195 198 227 246 248 257 258 260 268 270 275 281 285 287 288 289 293 297 299 300 302 302 301 296 291 291 291 289 290 290 286 285 287 287 283 277 275 274 272 273 274 270 264 256 254 261 269 271 264 256 258 263 261 258 256 262 269 266 261 264 269 270 271 266 257 263 271 265 265
155 146 158 162 164 175 172 174 180 176 182 182 172 187 196 201 216 209 222 241 248 258 251 248 257 263 274 283 289 293 297 299 298 299 302 303 301 303 306 305 299 295 295 293 291 290 287 285 286 285 284 282 280 277 272 272 275 276 276 266 252 249 257 263 264 260 260 261 255 250 253 258 260 260 262 262 259 262 264 262 262 262 257 255 261
167 154 160 166 176 187 179 182 184 175 182 175 154 172 195 198 217 229 233 233 231 251 251 249 258 261 270 282 295 303 305 307 304 302 304 304 305 305 306 306 302 297 295 293 291 291 291 289 287 283 282 282 280 277 272 269 269 271 275 275 265 253 250 254 255 255 256 256 251 251 255 259 260 260 258 256 258 262 260 254 255 256 250 247 251
175 158 161 174 187 194 184 188 189 164 172 172 164 186 191 182 204 249 243 218 232 259 264 262 275 283 286 288 295 299 300 303 305 306 307 307 307 305 302 300 298 294 291 291 291 290 289 288 286 283 282 280 277 274 270 268 267 265 266 268 268 264 258 258 260 259 258 255 251 251 253 255 260 262 260 260 260 258 257 257 256 252 247 247 247
180 167 169 179 188 196 184 179 183 160 167 177 180 199 178 169 206 242 230 235 268 292 298 280 279 292 304 308 312 315 316 316 316 314 312 310 308 307 305 302 299 297 295 292 290 292 292 287 283 281 280 279 277 275 271 266 263 261 262 263 264 263 259 258 262 265 264 262 257 255 253 250 251 251 251 255 257 254 255 258 258 254 248 247 246
187 181 179 184 186 188 181 178 194 209 234 251 258 292 276 225 248 247 241 247 264 285 291 281 283 295 302 309 318 321 317 317 318 316 312 311 311 309 308 306 303 301 298 292 291 297 298 291 285 285 285 281 278 277 275 272 267 262 261 260 260 262 261 258 260 262 264 265 263 261 261 258 256 253 251 250 250 252 253 253 253 252 248 245 245
190 184 184 192 192 191 190 189 199 213 231 239 241 267 285 281 279 278 273 261 259 271 273 262 274 297 302 306 309 309 310 313 316 315 314 314 314 312 312 312 307 302 299 294 294 297 295 287 285 290 292 285 276 274 273 273 273 270 267 263 259 259 260 261 261 261 261 263 262 261 262 262 262 262 261 258 254 253 255 254 253 251 246 243 244
193 188 187 194 195 192 191 191 200 212 221 231 251 275 282 281 280 277 276 270 258 257 256 256 292 305 305 308 309 312 321 323 321 320 320 319 316 315 316 314 309 306 304 299 296 297 294 290 289 292 293 286 276 273 273 274 276 277 276 272 266 260 259 259 261 264 265 267 267 265 265 264 263 263 264 265 264 263 262 260 257 255 252 248 244
194 192 191 197 201 197 193 196 204 207 209 231 255 270 274 277 273 265 267 265 254 254 259 276 304 314 315 316 322 328 330 329 329 328 323 320 320 320 318 314 310 310 309 304 299 296 295 296 296 295 294 287 277 272 276 279 278 276 276 275 270 266 265 262 259 261 265 269 270 271 271 270 269 267 266 267 269 271 271 269 264 259 257 255 248
174 183 182 187 193 187 186 190 192 193 208 225 219 207 210 230 253 263 268 269 290 299 296 296 321 339 338 336 343 344 336 329 329 323 317 316 316 313 310 307 305 304 305 305 304 301 297 297 299 300 297 291 284 281 284 284 279 273 273 274 272 271 269 265 262 261 261 263 267 270 273 273 270 267 266 264 265 268 271 271 268 262 258 257 253
138 150 144 125 139 156 167 175 174 180 199 197 187 194 203 170 131 111 71 42 344 338 51 50 24 2 348 353 355 338 320 313 315 316 318 319 316 315 313 312 311 310 308 306 306 306 304 303 304 304 300 296 296 297 295 290 283 278 275 275 277 279 276 270 268 267 266 265 266 267 271 276 275 270 268 268 268 267 266 266 267 265 260 257 256
134 156 160 162 177 170 165 170 171 182 196 185 169 171 136 105 115 93 70 79 65 65 83 67 36 13 358 351 327 310 310 319 326 329 329 328 328 330 332 331 330 330 325 318 314 314 315 316 316 314 307 303 305 306 303 297 291 287 281 278 280 285 284 280 277 276 274 271 271 271 272 275 277 275 274 273 274 273 268 263 262 264 264 262 258
160 171 170 183 201 201 186 174 167 163 159 147 140 140 130 121 117 94 84 90 75 61 62 58 33 14 355 324 314 319 327 335 342 340 336 338 341 342 343 341 341 345 346 342 336 331 328 326 326 325 321 314 310 310 309 306 298 290 287 287 289 291 291 292 292 290 285 281 280 281 280 280 281 281 278 275 276 279 279 272 263 259 262 265 263
171 180 188 193 196 194 184 172 163 153 141 134 136 135 126 118 112 100 88 82 71 55 46 43 28 14 356 332 332 337 340 346 352 346 341 346 348 347 347 343 345 354 354 346 342 341 340 342 343 342 337 327 319 317 317 316 311 302 297 300 302 303 303 304 304 301 296 291 288 288 288 288 287 284 278 275 277 280 282 278 269 258 257 261 265
185 191 192 187 183 180 174 169 165 158 147 139 138 139 137 129 113 101 92 79 69 54 41 37 28 19 11 357 352 345 341 347 353 345 343 348 348 346 346 342 344 350 346 340 341 344 346 351 353 348 343 337 331 328 331 337 337 327 317 316 316 316 316 316 314 312 309 304 298 294 293 292 291 288 283 279 279 279 276 275 272 267 262 261 263
192 191 180 174 173 168 163 162 159 153 149 148 147 144 143 137 121 106 87 65 60 52 40 30 24 20 9 359 356 343 337 346 353 342 340 347 349 346 340 337 341 344 338 337 340 340 340 343 344 342 343 343 340 338 340 346 348 343 338 337 336 332 331 329 326 322 319 314 309 307 304 301 297 295 292 289 286 282 278 276 272 269 266 264 264
170 173 168 164 162 154 147 140 134 131 134 145 153 151 139 126 116 97 74 62 55 46 36 25 24 17 342 336 346 337 336 351 355 337 338 350 353 343 337 339 345 346 341 339 340 341 344 345 344 342 339 338 342 347 345 344 346 348 348 347 345 342 341 338 333 329 328 326 322 318 315 310 305 301 298 295 292 288 283 279 274 270 270 271 269
156 162 158 151 144 139 135 129 126 126 125 130 144 146 128 108 90 69 63 60 50 46 41 14 5 353 330 337 351 344 346 1 353 333 344 358 352 345 348 352 352 349 346 345 347 351 355 355 354 352 349 347 351 352 348 346 347 348 348 347 345 342 339 336 332 329 329 328 326 322 318 315 310 307 304 300 296 293 288 283 278 274 273 275 273
149 150 147 142 136 132 130 126 126 129 130 130 132 121 96 68 52 50 57 60 45 22 347 334 344 346 337 349 2 349 350 4 349 339 355 1 348 351 360 358 354 355 353 353 357 0 2 0 360 360 0 2 0 356 351 350 350 348 347 348 346 345 344 341 338 336 332 326 323 319 314 311 311 311 308 302 298 295 291 288 285 280 275 275 274
141 140 141 141 134 129 127 126 129 136 137 134 118 78 42 24 41 54 51 16 333 332 340 348 2 6 354 1 9 352 353 5 351 345 358 356 341 351 2 357 355 358 0 1 2 1 1 1 0 358 359 1 359 351 344 343 344 343 343 343 343 343 343 340 338 337 334 330 326 320 313 311 312 312 309 304 299 294 290 289 292 292 286 279 277
136 135 137 137 135 136 134 130 130 134 131 123 75 42 23 8 8 9 2 348 343 355 9 15 21 18 5 9 11 350 352 5 356 347 355 348 334 343 358 359 354 353 358 2 0 359 360 358 355 356 359 359 355 345 336 334 337 338 337 337 338 339 338 336 334 332 329 327 324 320 315 313 313 312 309 306 303 298 293 289 290 292 290 282 280
136 134 133 134 138 142 138 130 129 126 116 93 314 329 350 350 351 3 25 29 20 20 24 21 23 21 11 14 13 350 351 4 358 349 353 347 337 347 2 359 348 345 354 360 358 357 357 352 349 354 356 354 354 347 334 329 332 335 337 339 340 340 339 338 337 335 332 329 326 322 319 317 316 314 312 308 304 300 298 295 292 290 285 279 279
136 136 136 135 136 135 129 128 140 158 277 297 296 308 9 32 48 61 63 44 16 24 38 31 22 14 0 6 11 355 355 5 359 349 353 350 345 352 357 352 343 341 347 353 354 354 352 347 349 356 353 347 349 342 327 324 330 335 339 341 340 339 339 338 338 337 334 331 329 327 326 324 321 319 316 313 311 308 306 304 303 300 294 289 288
136 138 139 138 139 142 148 184 255 278 287 288 298 45 58 63 71 75 76 43 14 27 42 28 20 13 356 359 9 356 352 359 355 347 350 351 348 349 347 342 338 334 339 347 350 349 347 344 346 350 346 343 347 341 330 331 336 340 342 342 340 337 336 335 335 334 330 328 328 330 330 327 325 326 329 332 333 330 327 323 322 319 312 306 303
140 144 148 154 187 254 274 265 260 261 185 124 100 67 69 87 94 80 69 49 27 31 30 8 7 4 350 352 2 350 338 342 347 346 345 344 343 343 341 338 331 326 337 347 347 343 342 339 339 341 336 336 341 342 339 339 341 341 342 342 340 338 334 332 332 330 326 325 328 333 334 333 334 338 340 338 335 333 331 328 325 323 320 315 310
163 168 198 273 279 259 181 150 152 147 122 107 103 102 100 102 97 76 68 52 28 25 17 357 352 351 347 350 355 343 336 340 346 345 340 336 338 340 340 336 322 319 337 346 342 339 340 337 336 337 332 328 333 338 340 341 340 338 339 339 338 336 332 331 330 326 322 324 330 335 336 337 339 337 332 329 328 327 326 326 325 322 318 315 311
195 220 258 249 182 161 155 153 153 151 136 101 93 102 106 107 97 80 69 50 30 17 0 350 352 357 2 7 358 345 343 344 343 340 336 335 338 339 336 332 321 323 338 342 334 331 336 336 334 333 329 325 328 334 336 336 334 333 335 335 335 333 331 332 332 328 325 328 333 336 338 338 335 329 324 324 326 327 327 327 328 326 321 317 315
231 218 173 162 162 164 165 149 127 132 135 121 110 110 110 114 106 83 67 44 22 7 351 346 348 351 356 358 348 343 342 338 337 340 338 335 337 336 332 331 330 331 335 336 330 329 334 333 330 329 327 326 328 330 330 329 328 330 333 335 336 334 334 336 337 334 333 335 337 339 338 334 329 327 327 328 329 330 330 329 327 326 324 322 320